Content
SEND FEEDBACK

Daily
Averages
Monthly
Summary
United States of America

CLARION, IOWA


Home > North America > United States > Iowa
Elevation: 1180 feet     Latitude: 42 43N     Longitude: 093 43W

WEATHER
 
SELECT A DAY
Number of Records: 415,201;   Date Range: 4/23/95 - 9/16/14
 
SHARE

PRINT THIS DATA

[ ← Previous Day ]
WEATHER ALMANAC - JANUARY 23, 2013
[ Next Day → ]
[ °C ]   °F
Weather ElementAverageHighLow
Temperature13.1 °F23 °F (12:15 pm)-0.4 °F (11:35 pm)
Dewpoint2.5 °F12.2 °F (11:15 am)-13 °F (11:35 pm)
Humidity62.8 %74 % (11:15 am)49 % (4:15 pm)
Barometer30.26 in30.53 in (11:35 pm)30.13 in (4:55 am)
Wind Speed16.2 mph28.8 mph (4:35 pm)
Wind Gust35.7 mph (6:15 pm)
Weather ElementAverage
Visibility10 mi
Wind DirectionWNW (296.2 °)

Weather ElementTotal
Precipitation---
Heating Degree Days53.7 (Base 65)
Averaged from 68 records on January 23, 2013
WEATHER CONDITIONS BREAKOUT
WIND DIRECTION BREAKOUT
WEATHER BY HOUR - JANUARY 23, 2013
[ °C ]   °F
Local TimeTemperatureDewpointHumidityBarometerVisibilityWind DirectionWind SpeedGust SpeedPrecipitationEventsConditions
12:35 AM14.0 °F5.0 °F67 %30.22 in10.0 miSouth (190°)12.7 mphOvercast
12:55 AM14.0 °F5.0 °F67 %30.21 in10.0 miSouth (190°)11.5 mphOvercast
1:35 AM14.0 °F5.0 °F67 %30.19 in10.0 miSSW (200°)11.5 mphOvercast
1:55 AM14.0 °F5.0 °F67 %30.20 in10.0 miSouth (190°)11.5 mphOvercast
2:15 AM14.0 °F6.8 °F73 %30.20 in10.0 miSSW (200°)10.4 mphOvercast
2:35 AM15.8 °F6.8 °F68 %30.20 in10.0 miSSW (200°)10.4 mphOvercast
2:55 AM15.8 °F6.8 °F68 %30.18 in10.0 miSSW (200°)9.2 mphOvercast
3:55 AM15.8 °F6.8 °F68 %30.16 in10.0 miSSW (200°)12.7 mphOvercast
4:15 AM15.8 °F6.8 °F68 %30.15 in10.0 miSSW (200°)10.4 mphOvercast
4:35 AM15.8 °F6.8 °F68 %30.15 in10.0 miSSW (210°)10.4 mphOvercast
4:55 AM15.8 °F6.8 °F68 %30.13 in10.0 miSSW (200°)10.4 mphOvercast
5:15 AM15.8 °F6.8 °F68 %30.13 in10.0 miSSW (200°)11.5 mphOvercast
5:35 AM15.8 °F6.8 °F68 %30.13 in10.0 miSSW (210°)11.5 mphOvercast
5:55 AM15.8 °F6.8 °F68 %30.14 in10.0 miSW (220°)11.5 mphOvercast
6:15 AM15.8 °F6.8 °F68 %30.15 in10.0 miSW (230°)12.7 mphOvercast
6:35 AM15.8 °F6.8 °F68 %30.15 in10.0 miWSW (240°)6.9 mphOvercast
6:55 AM15.8 °F6.8 °F68 %30.14 in10.0 miSW (230°)8.1 mphOvercast
7:15 AM15.8 °F6.8 °F68 %30.13 in10.0 miWSW (240°)11.5 mphOvercast
7:35 AM14.0 °F5.0 °F67 %30.14 in10.0 miWSW (250°)11.5 mphMostly Cloudy
7:55 AM14.0 °F6.8 °F73 %30.15 in10.0 miWSW (240°)11.5 mphPartly Cloudy
8:15 AM14.0 °F5.0 °F67 %30.15 in10.0 miWSW (250°)11.5 mphClear
8:35 AM14.0 °F5.0 °F67 %30.14 in10.0 miWest (260°)9.2 mphClear
8:55 AM14.0 °F6.8 °F73 %30.15 in10.0 miWest (280°)9.2 mphClear
9:15 AM14.0 °F6.8 °F73 %30.15 in10.0 miWNW (290°)10.4 mphClear
9:35 AM15.8 °F6.8 °F68 %30.16 in10.0 miNW (310°)13.8 mphClear
9:55 AM17.6 °F8.6 °F68 %30.17 in10.0 miNW (320°)15.0 mphClear
10:15 AM17.6 °F8.6 °F68 %30.18 in10.0 miNNW (330°)15.0 mphClear
10:35 AM19.4 °F10.4 °F68 %30.18 in10.0 miNNW (340°)15.0 mphSnowLight Snow
10:55 AM19.4 °F10.4 °F68 %30.19 in10.0 miNorth (350°)16.1 mph23.0 mphMostly Cloudy
11:15 AM19.4 °F12.2 °F74 %30.20 in9.0 miNNW (330°)15.0 mphSnowLight Snow
11:35 AM21.2 °F12.2 °F68 %30.19 in9.0 miNNW (340°)17.3 mphMostly Cloudy
11:55 AM21.2 °F12.2 °F68 %30.20 in10.0 miNNW (330°)16.1 mphMostly Cloudy
12:15 PM23.0 °F12.2 °F63 %30.19 in10.0 miNW (320°)16.1 mphMostly Cloudy
12:35 PM21.2 °F10.4 °F63 %30.20 in10.0 miNNW (340°)18.4 mph25.3 mphMostly Cloudy
12:55 PM21.2 °F10.4 °F63 %30.20 in10.0 miNNW (330°)20.7 mphRainLight Rain
1:15 PM21.2 °F10.4 °F63 %30.19 in10.0 miNW (320°)20.7 mph26.5 mphRainLight Rain
1:35 PM21.2 °F10.4 °F63 %30.19 in10.0 miNNW (330°)20.7 mph27.6 mphRainLight Rain
1:55 PM21.2 °F10.4 °F63 %30.20 in9.0 miNW (320°)21.9 mph27.6 mphSnowLight Snow
2:15 PM21.2 °F10.4 °F63 %30.21 in10.0 miNW (320°)25.3 mphSnowLight Snow
2:35 PM21.2 °F8.6 °F58 %30.21 in10.0 miNNW (330°)21.9 mphOvercast
2:55 PM21.2 °F6.8 °F54 %30.23 in10.0 miNNW (330°)21.9 mph32.2 mphMostly Cloudy
3:15 PM21.2 °F6.8 °F54 %30.24 in10.0 miNW (320°)24.2 mph32.2 mphOvercast
3:35 PM19.4 °F5.0 °F54 %30.25 in10.0 miNNW (330°)23.0 mph31.1 mphOvercast
3:55 PM17.6 °F3.2 °F53 %30.26 in10.0 miNNW (330°)27.6 mph33.4 mphMostly Cloudy
4:15 PM17.6 °F1.4 °F49 %30.27 in10.0 miNW (320°)27.6 mphPartly Cloudy
4:35 PM15.8 °F-0.4 °F49 %30.29 in10.0 miNNW (330°)28.8 mph34.5 mphClear
4:55 PM14.0 °F-0.4 °F53 %30.30 in10.0 miNNW (340°)20.7 mph29.9 mphClear
5:15 PM12.2 °F-2.2 °F53 %30.32 in10.0 miNNW (330°)25.3 mph34.5 mphClear
5:35 PM10.4 °F-2.2 °F57 %30.33 in10.0 miNW (320°)27.6 mphClear
5:55 PM8.6 °F-4.0 °F57 %30.35 in10.0 miNNW (330°)24.2 mph31.1 mphClear
6:15 PM6.8 °F-5.8 °F56 %30.35 in10.0 miNNW (330°)23.0 mph35.7 mphClear
6:35 PM6.8 °F-5.8 °F56 %30.37 in10.0 miNNW (340°)25.3 mph33.4 mphScattered Clouds
6:55 PM5.0 °F-7.6 °F56 %30.39 in10.0 miNNW (340°)19.6 mph33.4 mphMostly Cloudy
7:15 PM5.0 °F-7.6 °F56 %30.40 in10.0 miNNW (340°)16.1 mph28.8 mphOvercast
7:35 PM3.2 °F-7.6 °F61 %30.40 in10.0 miNNW (340°)23.0 mphMostly Cloudy
7:55 PM3.2 °F-7.6 °F61 %30.41 in10.0 miNorth (350°)20.7 mph31.1 mphScattered Clouds
8:15 PM3.2 °F-7.6 °F61 %30.42 in10.0 miNNW (340°)18.4 mph27.6 mphPartly Cloudy
8:35 PM3.2 °F-7.6 °F61 %30.43 in10.0 miNorth (350°)15.0 mph23.0 mphPartly Cloudy
8:55 PM3.2 °F-7.6 °F61 %30.44 in10.0 miNorth (350°)15.0 mphClear
9:15 PM3.2 °F-7.6 °F61 %30.45 in10.0 miNorth (350°)16.1 mphClear
9:35 PM1.4 °F-9.4 °F61 %30.46 in10.0 miNorth (350°)13.8 mphClear
9:55 PM1.4 °F-11.2 °F56 %30.46 in10.0 miNorth (350°)15.0 mph23.0 mphClear
10:15 PM1.4 °F-11.2 °F56 %30.47 in10.0 miNorth (350°)16.1 mph21.9 mphClear
10:35 PM1.4 °F-11.2 °F56 %30.47 in10.0 miNorth (360°)16.1 mph21.9 mphClear
10:55 PM1.4 °F-11.2 °F56 %30.49 in10.0 miNorth (360°)12.7 mph19.6 mphClear
11:15 PM1.4 °F-11.2 °F56 %30.50 in10.0 miNorth (360°)12.7 mph19.6 mphClear
11:35 PM-0.4 °F-13.0 °F55 %30.53 in10.0 miNorth (360°)11.5 mph19.6 mphClear
11:55 PM-0.4 °F-11.2 °F60 %30.53 in10.0 miNorth (360°)12.7 mphClear
Hourly data recorded from KCAV, located miles away from Clarion, Iowa







STORIES FROM OUR PARTNERS